Location: Unspecified
(0.0000°N, 0.0000°E)
Time: 20:31:33
(UTC+00:00)

MAROC-TUBSAT - Visible Passes

Search period start: 04 June 2023 00:00
Search period end: 14 June 2023 00:00
Orbit: 984 x 1014 km, 99.7° (Epoch: 04 June)

Date Brightness Start Highest point End Pass type
(mag) Time Alt. Az. Time Alt. Az. Time Alt. Az.
04 Jun 10.5 03:06:37 19° N 03:06:37 19° N 03:08:13 10° N visible
05 Jun 10.5 03:38:42 16° NNW 03:38:42 16° NNW 03:39:46 10° NNW visible
06 Jun 11.0 02:25:38 14° NNE 02:25:38 14° NNE 02:26:45 10° NNE visible
07 Jun 10.5 02:57:44 19° N 02:57:44 19° N 02:59:25 10° N visible
08 Jun 10.4 03:29:49 18° NNW 03:29:49 18° NNW 03:31:10 10° NNW visible
09 Jun 11.1 02:16:46 12° NE 02:16:46 12° NE 02:17:30 10° NNE visible
09 Jun 10.7 04:01:55 11° NW 04:01:55 11° NW 04:02:07 10° NW visible
10 Jun 10.6 02:48:52 19° NNE 02:48:52 19° NNE 02:50:32 10° N visible
11 Jun 10.4 03:20:59 19° NNW 03:20:59 19° NNW 03:22:30 10° NNW visible
12 Jun 11.3 02:07:55 10° NE 02:07:55 10° NE 02:08:03 10° NE visible
12 Jun 10.6 03:53:04 13° NW 03:53:04 13° NW 03:53:42 10° NNW visible
13 Jun 10.7 02:40:01 17° NNE 02:40:01 17° NNE 02:41:34 10° NNE visible
